Weather in Khoronkhoy

Russia / Republic of Buryatia     50°28′26″N   106°08′53″E
temp.,
°C
wind,
m/s
gust,
m/s
humid.,
%
clouds,
%
prec.,
mm/h
press.,
hPa
HPBL,
m
9 may, sun
sun923:00+5ene12705 0.0 101310
02:00+4sw01767 0.0 101310
05:00+3s227499 0.0 101312
08:00+8s23535 0.0 1012361
11:00+13ssw454134 0.0 10091643
14:00+15w253299 0.0 10072114
17:00+16nne4432100 0.0 10042274
20:00+9se237691 2.6 1006105
10 may, mon
mon1023:00+8nne1279100 0.1 100762
02:00+6nne4884100 0.1 1008286
05:00+5nne498498 0.1 1010510
08:00+6nne5972100 0.1 1011819
11:00+7nne7856100 0.0 10121193
14:00+10nne674381 0.0 10111631
17:00+10nne8838100 0.0 10111824
20:00+7nne695431 0.0 1013733
11 may, tue
tue1123:00+3nne367851 0.0 1016159
02:00+4nw2469100 0.0 1015315
05:00+3w2370100 0.0 1016100
08:00+5wnw4761100 0.0 1016645
11:00+10nnw694476 0.0 10141937
14:00+12n783596 0.1 10142357
17:00+13n663128 0.0 10132354
20:00+9ne46422 0.0 1015157
12 may, wed
wed1223:00+5ssw11580 0.0 101610
02:00+4ssw22592 0.0 101611
05:00+3s22632 0.0 101511
08:00+8ssw24479 0.0 1013383
11:00+14sw46349 0.0 10101227
14:00+17wsw452157 0.0 10063038
17:00+17n642468 0.0 10052132
20:00+13n61033100 0.0 1007544
13 may, thu
thu1323:00+10n6953100 0.0 1010915
02:00+7n51076100 0.7 10121179
05:00+4n51166100 0.2 10161526
08:00+5n7114611 0.2 10181698
11:00+9n792814 0.0 10172227
14:00+11n682532 0.0 10162515
17:00+11n67265 0.0 10162325
20:00+8nne23341 0.0 101759